ZSSGP FAVG-FAWB

Flight info

Callsign ZSSGP
Flight time N/A
Altitude 12000
Route PMV
Aircraft C208/L-SDFGR/C

Departure

Time N/A
Airport Virginia Airport (FAVG)

Arrival

Time 2026-04-30 18:22
Airport Wonderboom Airport (FAWB)
Time Latitude Longitude Altitude Speed Heading
2026-04-30 17:39 -27.14677 29.01463 12191 ft 162 kts 329°
2026-04-30 17:41 -27.06371 28.97171 12192 ft 165 kts 333°
2026-04-30 17:42 -27.04243 28.96229 12197 ft 165 kts 333°
2026-04-30 17:42 -27.01031 28.94802 12204 ft 165 kts 333°
2026-04-30 17:43 -26.98907 28.93860 12205 ft 164 kts 333°
2026-04-30 17:44 -26.95753 28.92460 12206 ft 163 kts 333°
2026-04-30 17:44 -26.92602 28.91063 12205 ft 163 kts 333°
2026-04-30 17:46 -26.87272 28.88701 12197 ft 166 kts 333°
2026-04-30 17:47 -26.83002 28.86813 12207 ft 166 kts 333°
2026-04-30 17:48 -26.78696 28.84908 12207 ft 166 kts 333°
2026-04-30 17:48 -26.75478 28.83486 12210 ft 166 kts 333°
2026-04-30 17:49 -26.70963 28.81490 11758 ft 179 kts 334°
2026-04-30 17:50 -26.66313 28.79439 11287 ft 181 kts 334°
2026-04-30 17:51 -26.62816 28.77898 10931 ft 179 kts 334°
2026-04-30 17:52 -26.59364 28.76376 10582 ft 180 kts 334°
2026-04-30 17:53 -26.53951 28.73993 10044 ft 177 kts 334°
2026-04-30 17:54 -26.49363 28.71975 9534 ft 177 kts 334°
2026-04-30 17:55 -26.44861 28.69998 9238 ft 167 kts 335°
2026-04-30 17:56 -26.40607 28.68130 9229 ft 162 kts 335°
2026-04-30 17:57 -26.37464 28.66750 9233 ft 161 kts 335°
2026-04-30 17:58 -26.34357 28.65388 9234 ft 160 kts 335°
2026-04-30 17:59 -26.30206 28.63569 9238 ft 161 kts 335°
2026-04-30 18:00 -26.25995 28.61724 9035 ft 168 kts 336°
2026-04-30 18:00 -26.22697 28.60282 8675 ft 171 kts 336°
2026-04-30 18:01 -26.20485 28.59312 8432 ft 170 kts 336°
2026-04-30 18:02 -26.17177 28.57868 8060 ft 171 kts 338°
2026-04-30 18:02 -26.13842 28.56411 7698 ft 172 kts 338°
2026-04-30 18:03 -26.10576 28.54984 7335 ft 163 kts 338°
2026-04-30 18:04 -26.07487 28.53635 7086 ft 152 kts 339°
2026-04-30 18:05 -26.03774 28.52016 7090 ft 140 kts 339°
2026-04-30 18:06 -26.00031 28.50427 7107 ft 148 kts 339°
2026-04-30 18:07 -25.96179 28.48785 7105 ft 147 kts 339°
2026-04-30 18:08 -25.94670 28.46113 7107 ft 155 kts 284°
2026-04-30 18:09 -25.94075 28.41335 7096 ft 157 kts 284°
2026-04-30 18:10 -25.93429 28.36450 7102 ft 162 kts 284°
2026-04-30 18:11 -25.92934 28.31449 7108 ft 163 kts 285°
2026-04-30 18:11 -25.92274 28.27744 7100 ft 163 kts 287°
2026-04-30 18:12 -25.91404 28.24149 7091 ft 159 kts 300°
2026-04-30 18:13 -25.90182 28.22167 7086 ft 155 kts 313°
2026-04-30 18:13 -25.88278 28.19799 7083 ft 154 kts 321°
2026-04-30 18:14 -25.86413 28.17932 7091 ft 154 kts 321°
2026-04-30 18:15 -25.84005 28.15544 7091 ft 154 kts 321°
2026-04-30 18:15 -25.81473 28.13412 7091 ft 152 kts 343°
2026-04-30 18:16 -25.79388 28.13032 7092 ft 152 kts 351°
2026-04-30 18:16 -25.77301 28.12736 7122 ft 151 kts 351°
2026-04-30 18:17 -25.76262 28.12627 7116 ft 152 kts 357°
2026-04-30 18:17 -25.75205 28.12644 7118 ft 152 kts 359°
2026-04-30 18:17 -25.73083 28.12696 7010 ft 153 kts 359°
2026-04-30 18:18 -25.72004 28.12718 7016 ft 156 kts 359°
2026-04-30 18:18 -25.70939 28.12724 6943 ft 144 kts 358°
2026-04-30 18:18 -25.69976 28.12728 6649 ft 134 kts 360°
2026-04-30 18:18 -25.69072 28.12751 6383 ft 127 kts
2026-04-30 18:19 -25.68193 28.12867 6127 ft 126 kts
2026-04-30 18:19 -25.67353 28.13102 5919 ft 122 kts 15°
2026-04-30 18:19 -25.66565 28.13419 5701 ft 118 kts 21°
2026-04-30 18:19 -25.65893 28.13863 5529 ft 109 kts 29°
2026-04-30 18:20 -25.65426 28.14443 5431 ft 99 kts 54°
2026-04-30 18:20 -25.65190 28.15176 5204 ft 104 kts 70°
2026-04-30 18:20 -25.65139 28.15996 4969 ft 109 kts 78°
2026-04-30 18:20 -25.65136 28.16794 4852 ft 98 kts 84°
2026-04-30 18:21 -25.65168 28.17510 4707 ft 89 kts 83°
2026-04-30 18:21 -25.65187 28.18189 4591 ft 87 kts 83°
2026-04-30 18:21 -25.65210 28.18847 4476 ft 86 kts 85°
2026-04-30 18:21 -25.65228 28.19488 4359 ft 83 kts 89°
2026-04-30 18:22 -25.65259 28.20140 4325 ft 88 kts 84°
2026-04-30 18:22 -25.65317 28.21509 4107 ft 79 kts 87°
2026-04-30 18:22 -25.65338 28.22013 4105 ft 42 kts 93°
2026-04-30 18:23 -25.65349 28.22282 4105 ft 34 kts 94°
2026-04-30 18:23 -25.65362 28.22471 4100 ft 12 kts 137°
2026-04-30 18:23 -25.65437 28.22423 4102 ft 16 kts 229°
2026-04-30 18:23 -25.65460 28.22324 4101 ft 10 kts 271°
2026-04-30 18:24 -25.65456 28.22226 4100 ft 5 kts 272°
2026-04-30 18:24 -25.65455 28.22186 4100 ft 5 kts 270°
2026-04-30 18:24 -25.65454 28.22136 4100 ft 9 kts 271°
2026-04-30 18:25 -25.65450 28.22043 4100 ft 15 kts 272°
2026-04-30 18:25 -25.65436 28.21747 4101 ft 20 kts 270°
2026-04-30 18:25 -25.65464 28.21583 4100 ft 21 kts 247°
2026-04-30 18:26 -25.65595 28.21463 4100 ft 10 kts 200°
2026-04-30 18:26 -25.65611 28.21425 4100 ft 4 kts 285°
2026-04-30 18:26 -25.65606 28.21400 4100 ft 3 kts 267°
2026-04-30 18:27 -25.65602 28.21379 4100 ft 0 kts 307°
2026-04-30 18:27 -25.65602 28.21380 4100 ft 1 kts 298°
2026-04-30 18:28 -25.65606 28.21388 4100 ft 2 kts 312°
2026-04-30 18:28 -25.65590 28.21369 4100 ft 3 kts 317°
2026-04-30 18:28 -25.65585 28.21369 4100 ft 0 kts 50°